Weather History for Mitchell, SD

Change the Weather History Date:

Friday, October 14, 2011

  Actual Average Record
Temperature  
Mean Temperature 51 °F 51 °F  
Max Temperature 60 °F 63 °F 89 °F (1918)
Min Temperature 42 °F 38 °F 10 °F (1937)
Degree Days  
Heating Degree Days 14 15  
Month to date heating degree days 36 173  
Since 1 July heating degree days 211 331  
Cooling Degree Days 0 0  
Month to date cooling degree days 37 7  
Year to date cooling degree days 994 824  
Growing Degree Days 2 (Base 50)    
Moisture  
Dew Point 35 °F    
Average Humidity 56    
Maximum Humidity 82    
Minimum Humidity 30    
Precipitation  
Precipitation 0.00 in 0.06 in 2.93 in (2013)
Month to date precipitation 2.19 0.88  
Year to date precipitation 19.11 19.55  
Snow  
Snow 0.00 in - T in (1966)
Month to date snowfall 0.0  
Since 1 July snowfall 0.0  
Since 1 September snowfall 0.0  
Snow Depth 0.00 in    
Sea Level Pressure  
Sea Level Pressure 29.96 in    
Wind  
Wind Speed 14 mph (NW)    
Max Wind Speed 32 mph    
Max Gust Speed 40 mph    
Visibility 10 miles    
Events      
T = Trace of Precipitation, MM = Missing Value Source: NWS Daily Summary

Daily Weather History Graph

Daily Weather History Graph

Search for Another Location

Airport:

Trip Planner

Search our weather history database for the weather conditions in past years. The results will help you decide how hot, cold, wet, or windy it might be!

Date:

Astronomy

Oct. 14, 2011 Rise Set
Actual Time 7:44 AM CDT 6:50 PM CDT
Civil Twilight 7:16 AM CDT 7:19 PM CDT
Nautical Twilight 6:42 AM CDT 7:52 PM CDT
Astronomical Twilight 6:09 AM CDT 8:26 PM CDT
Moon 7:57 PM CDT (10/14) 10:21 AM CDT (10/14)
Length of Visible Light 12h 03m
Length of Day
11h 05m
Waning Gibbous, 94% of the Moon is Illuminated
Oct 14
Waning Gibbous
Oct 19
Last Quarter
Oct 26
New
Nov 2
First Quarter
Nov 10
Full

Hourly Weather History & Observations

Time (CDT) Temp. Windchill Dew Point Humidity Pressure Visibility Wind Dir Wind Speed Gust Speed Precip Events Conditions
12:53 AM 46.0 °F 41.4 °F 36.0 °F 68% 29.87 in 10.0 mi WNW 9.2 mph - N/A   Clear
1:53 AM 46.0 °F 40.6 °F 36.0 °F 68% 29.87 in 10.0 mi NW 11.5 mph - N/A   Clear
2:53 AM 46.0 °F 40.2 °F 36.0 °F 68% 29.88 in 10.0 mi NW 12.7 mph - N/A   Clear
3:53 AM 46.0 °F 40.2 °F 37.0 °F 71% 29.88 in 10.0 mi NW 12.7 mph - N/A   Clear
4:53 AM 46.0 °F 40.2 °F 37.0 °F 71% 29.89 in 10.0 mi NW 12.7 mph - N/A   Clear
5:53 AM 46.0 °F 39.9 °F 37.0 °F 71% 29.91 in 10.0 mi NW 13.8 mph - N/A   Clear
6:53 AM 45.0 °F 39.7 °F 36.0 °F 71% 29.94 in 10.0 mi WNW 10.4 mph - N/A   Clear
8:53 AM 48.0 °F - 37.0 °F 66% 29.96 in 10.0 mi NW 13.8 mph 26.5 mph N/A   Clear
9:53 AM 53.1 °F - 37.0 °F 55% 29.96 in 10.0 mi NW 15.0 mph - N/A   Clear
10:53 AM 55.9 °F - 33.1 °F 42% 29.98 in 10.0 mi NNW 24.2 mph 32.2 mph N/A   Clear
11:53 AM 57.9 °F - 27.0 °F 31% 29.97 in 10.0 mi NW 27.6 mph 38.0 mph N/A   Clear
12:53 PM 59.0 °F - 30.9 °F 35% 29.98 in 10.0 mi NW 26.5 mph 34.5 mph N/A   Clear
2:53 PM 60.1 °F - 34.0 °F 38% 29.97 in 10.0 mi NNW 20.7 mph 29.9 mph N/A   Partly Cloudy
3:53 PM 59.0 °F - 35.1 °F 41% 29.98 in 10.0 mi NNW 18.4 mph 29.9 mph N/A   Mostly Cloudy
4:53 PM 57.9 °F - 34.0 °F 41% 29.98 in 10.0 mi NNW 21.9 mph 27.6 mph N/A   Mostly Cloudy
5:53 PM 55.0 °F - 35.1 °F 47% 30.00 in 10.0 mi NNW 15.0 mph 26.5 mph N/A   Partly Cloudy
6:53 PM 51.1 °F - 36.0 °F 56% 30.01 in 10.0 mi NNW 10.4 mph - N/A   Clear
7:53 PM 46.9 °F - 36.0 °F 66% 30.03 in 10.0 mi NW 5.8 mph - N/A   Clear
8:53 PM 46.9 °F - 36.0 °F 66% 30.02 in 10.0 mi West 3.5 mph - N/A   Clear
9:53 PM 43.0 °F 39.5 °F 37.0 °F 80% 30.02 in 10.0 mi West 5.8 mph - N/A   Clear
10:53 PM 43.0 °F 40.3 °F 35.1 °F 74% 30.02 in 10.0 mi West 4.6 mph - N/A   Clear